Portada
METAR-TAF:

METAR-TAF

Aeropuertos :

Tiaret, Argelia

latitud: 35-15N, longitud: 001-26E, altitud: 1127 m

Observación

El informe se hizo hace 22 minutos, a las 11:00 UTC
Viento 5 kt del oeste-noroeste
Temperatura 14°C
Humedad 33%
Presión 1022 hPa
Visibilidad 10 km o más
sin nubes por debajo de 1500 m y sin presencia de cumulonimbus.

METAR: DAOB 231100Z 30005KT CAVOK 14/M02 Q1022

Hora: 12:22 (11:22 UTC)

Pronóstico

El informe se hizo hace 6 horas y 22 minutos, a las 05:00 UTC
Pronóstico válido del 23 a las 06 UTC al 24 a las 06 UTC
Viento 2 kt con dirección variable
Visibilidad 10 km o más
sin nubes por debajo de 1500 m y sin presencia de cumulonimbus.
Temporalmente
del 23 a las 12 UTC al 23 a las 16 UTC
Viento 10 kt del noroeste

TAF: DAOB 230500Z 2306/2406 VRB02KT CAVOK TEMPO 2312/2316 32010KT

Observaciones y pronósticos meteorológicos de más de 4000 aeropuertos (mensajes METAR y TAF).

Los puntos amarillos y rojos representan las estaciones disponibles.

Ponga el ratón en el punto deseado para ver el nombre de la estación.

Haga clic para ver las observaciones y los pronósticos meteorológicos.

Para cambiar el mapa : haga clic en los botones verdes con una cruz de color negro para hacer un zoom, en el botón verde con un guión para alejar o en las flechas verdes para mapas adyacentes.


METAR-TAF: